Location: Addison Town Hall
(32.9525°N, 96.8158°W)
Time: 01:02:06
(UTC+00:00)

CZ-2C R/B - Pass Details

Date: 08 March 2021
Orbit: 390 x 582 km, 35.0° (Epoch: 10 April)

Event Time Altitude Azimuth Distance (km) Brightness Sun altitude
Exits shadow 12:08:16 - 227° (SW) 2,421 4.2 -8.8°
Reaches altitude 10° 12:09:49 10° 221° (SW) 1,860 3.6 -8.5°
Maximum altitude 12:13:48 36° 154° (SSE) 918 2.7 -7.6°
Drops below altitude 10° 12:17:51 10° 87° (E) 1,891 5.9 -6.8°
Sets 12:20:16 0° 79° (E) 2,787 7.0 -6.3°
